Flag for U.S.A. Weather past 2 weeks in Glendale, California, U.S.A.

Now
57 °F

Passing clouds.


Feels Like: 56 °F
Forecast: 50 / 59 °F
Wind: 7 mph from Southeast

Location: Burbank-Glendale-Pasadena Airport

Current Time: Feb 27, 2015 at 11:50:26 PM

Latest Report: Feb 27, 2015 at 10:53 PM


Visibility: 10 mi

Pressure: 29.72 "Hg

Humidity: 78%

Dew point: 50 °F

Location of GlendaleLocation

Historic Weather in Glendale — Graph

°F

Glendale temperature yesterday

Maximum temperature yesterday: 69 °F (at 1:53 PM)
Minimum temperature yesterday: 47 °F (at 6:53 AM)
Average temperature yesterday: 58 °F

Past Weeks' High & Low Weather Summary

 TemperatureHumidityPressure
High86 °F (Feb 13, 1:53 PM)100% (Feb 18, 6:55 AM)30.21 "Hg (Feb 18, 6:55 AM)
Low43 °F (Feb 24, 3:53 AM)8% (Feb 13, 12:53 PM)29.72 "Hg (Feb 27, 6:53 PM)
Average60 °F59%29.97 "Hg
* Reported Feb 12 10:53 PM — Feb 27 10:53 PM, Glendale, Weather by CustomWeather, © 2015

Note: Actual official high and low records may vary slightly from our data, if they occured in-between our weather recording intervals... More about our weather records

Advertising

Glendale weather history for previous 24 hours

 ConditionsComfort  
Time TempWeatherWind HumidityBarometerVisibility
10:53 PM
Fri, Feb 27
57 °FPassing clouds.7 mph78%29.72 "Hg10 mi
9:53 PM58 °FPassing clouds.7 mph75%29.72 "Hg10 mi
8:53 PM58 °FMostly cloudy.7 mph78%29.72 "Hg10 mi
7:53 PM58 °FPassing clouds.8 mph78%29.72 "Hg10 mi
6:53 PM59 °FOvercast.5 mph69%29.72 "Hg10 mi
5:53 PM59 °FOvercast.6 mph69%29.72 "Hg10 mi
4:53 PM60 °FOvercast.6 mph69%29.72 "Hg10 mi
3:53 PM61 °FCloudy.9 mph67%29.73 "Hg10 mi
2:53 PM62 °FCloudy.10 mph62%29.73 "Hg10 mi
1:53 PM62 °FMostly cloudy.8 mph60%29.75 "Hg10 mi
12:53 PM61 °FMostly cloudy.3 mph62%29.77 "Hg10 mi
11:53 AM61 °FOvercast.6 mph60%29.80 "Hg10 mi
11:00 AM61 °FOvercast.3 mph59%29.84 "Hg10 mi
9:53 AM58 °FOvercast.6 mph72%29.83 "Hg10 mi
8:53 AM57 °FOvercast.5 mph74%29.84 "Hg10 mi
8:00 AM55 °FScattered clouds.3 mph77%29.84 "Hg10 mi
6:56 AM54 °FPartly sunny.No wind77%29.82 "Hg8 mi
5:53 AM53 °FOvercast.No wind80%29.80 "Hg9 mi
4:53 AM53 °FOvercast.3 mph83%29.79 "Hg9 mi
3:53 AM54 °FFog.No wind86%29.78 "Hg6 mi
2:53 AM54 °FPassing clouds.No wind86%29.78 "Hg7 mi
2:03 AM55 °FPassing clouds.5 mph88%29.83 "Hg7 mi
1:53 AM55 °FClear.6 mph87%29.80 "Hg7 mi
12:53 AM56 °FClear.8 mph84%29.79 "Hg9 mi
11:53 PM
Thu, Feb 26
57 °FClear.5 mph78%29.80 "Hg10 mi
Weather by CustomWeather, © 2015

See weather overviewHow to use our weather pages